Time,TemperatureF,DewpointF,PressureIn,WindDirection,WindDirectionDegrees,WindSpeedMPH,WindSpeedGustMPH,Humidity,HourlyPrecipIn,Conditions,Clouds,dailyrainin,SoftwareType,DateUTC
2015-07-30 00:03:00,75.0,73.0,29.88,SE,130,0.0,1.0,94,-99.99,,,-99.99,,2015-07-30 04:03:00,
2015-07-30 00:13:00,75.0,73.0,29.89,SE,130,0.0,2.0,94,-99.99,,,-99.99,,2015-07-30 04:13:00,
2015-07-30 00:23:00,75.0,73.0,29.89,SE,130,0.0,1.0,94,-99.99,,,-99.99,,2015-07-30 04:23:00,
2015-07-30 00:43:00,75.0,73.0,29.89,SE,130,0.0,1.0,94,-99.99,,,-99.99,,2015-07-30 04:43:00,
2015-07-30 01:03:00,75.0,73.0,29.89,SE,130,0.0,2.0,94,-99.99,,,-99.99,,2015-07-30 05:03:00,
2015-07-30 01:13:00,75.0,73.0,29.88,SE,130,0.0,2.0,95,-99.99,,,-99.99,,2015-07-30 05:13:00,
2015-07-30 01:23:00,74.0,72.0,29.88,SE,130,0.0,1.0,95,-99.99,,,-99.99,,2015-07-30 05:23:00,
2015-07-30 01:33:00,74.0,72.0,29.88,SE,130,0.0,1.0,95,-99.99,,,-99.99,,2015-07-30 05:33:00,
2015-07-30 01:44:00,74.0,72.0,29.88,SE,130,0.0,1.0,95,-99.99,,,-99.99,,2015-07-30 05:44:00,
2015-07-30 01:53:00,74.0,72.0,29.88,SE,130,0.0,1.0,95,-99.99,,,-99.99,,2015-07-30 05:53:00,
2015-07-30 02:03:00,74.0,72.0,29.88,SE,130,0.0,1.0,95,-99.99,,,-99.99,,2015-07-30 06:03:00,
2015-07-30 02:24:00,74.0,72.0,29.89,SE,130,0.0,1.0,95,-99.99,,,-99.99,,2015-07-30 06:24:00,
2015-07-30 02:33:00,74.0,72.0,29.89,SE,130,0.0,1.0,95,-99.99,,,-99.99,,2015-07-30 06:33:00,
2015-07-30 02:44:00,74.0,73.0,29.89,SE,130,0.0,1.0,96,-99.99,,,-99.99,,2015-07-30 06:44:00,
2015-07-30 03:03:00,74.0,73.0,29.89,SE,130,0.0,1.0,96,-99.99,,,-99.99,,2015-07-30 07:03:00,
2015-07-30 03:13:00,74.0,72.0,29.89,SSW,196,0.0,2.0,95,-99.99,,,-99.99,,2015-07-30 07:13:00,
2015-07-30 03:23:00,74.0,72.0,29.89,West,274,0.0,3.0,94,-99.99,,,-99.99,,2015-07-30 07:23:00,
2015-07-30 03:33:00,74.0,72.0,29.89,West,274,0.0,3.0,94,-99.99,,,-99.99,,2015-07-30 07:33:00,
2015-07-30 03:44:00,73.0,70.0,29.89,SSW,192,1.0,5.0,91,-99.99,,,-99.99,,2015-07-30 07:44:00,
2015-07-30 03:53:00,73.0,68.0,29.89,West,265,0.0,3.0,85,-99.99,,,-99.99,,2015-07-30 07:53:00,
2015-07-30 04:03:00,73.0,68.0,29.89,West,265,0.0,3.0,85,-99.99,,,-99.99,,2015-07-30 08:03:00,
2015-07-30 04:12:00,73.0,68.0,29.90,WSW,240,0.0,1.0,83,-99.99,,,-99.99,,2015-07-30 08:12:00,